SCP
1 2 2 2 3 3 2 2 1 1 1 0 0 0 0 0 0 0 0 1 1 2 3 3 3 4 3 3 2 2 2 2 3 2 1 1 1 1 1 1 1 1 1
1 1 2 2 2 2 2 2 1 1 1 0 0 0 0 0 0 0 0 1 1 2 3 3 4 4 4 3 2 2 2 2 2 2 1 1 1 1 1 1 1 1 1
1 1 1 2 2 2 2 2 1 1 0 0 0 0 0 0 0 0 0 1 1 2 2 3 4 5 5 4 3 2 2 3 2 1 1 0 1 1 1 1 1 1 1
0 0 1 1 2 2 1 1 1 0 0 0 0 0 0 0 0 0 0 1 1 1 2 3 4 5 5 4 3 3 2 3 2 1 0 0 0 1 1 1 1 1 1
0 0 1 1 1 1 1 1 0 0 0 0 0 0 0 0 0 0 0 1 1 1 1 2 3 3 3 4 4 3 2 3 2 1 0 0 0 0 1 1 1 1 1
0 0 1 1 1 1 1 0 0 0 0 0 0 0 0 0 0 0 0 0 0 0 1 1 1 2 2 3 3 3 3 3 2 1 0 0 0 0 0 1 1 1 1
0 0 0 1 1 1 1 0 0 0 0 0 0 0 0 0 0 0 0 0 0 0 0 0 1 1 1 1 2 3 3 3 2 1 1 0 0 0 0 0 1 1 1
0 0 0 0 0 0 1 1 1 0 0 0 0 0 0 0 0 0 0 0 0 0 0 0 0 0 1 1 1 2 2 3 2 1 1 1 1 0 0 0 0 1 1
0 0 0 0 0 0 0 0 0 0 0 0 0 0 0 0 0 0 0 0 0 0 0 0 0 0 0 0 1 1 1 2 2 2 1 1 1 1 0 0 1 1 1
0 0 0 0 0 0 0 0 0 0 0 0 0 0 0 0 0 0 0 0 0 0 0 0 0 0 0 0 0 0 1 1 2 2 2 2 1 1 0 1 1 1 1
0 0 0 0 0 0 0 0 0 0 0 0 0 0 0 0 0 0 0 0 0 0 0 0 0 0 0 0 1 0 0 1 1 2 2 1 1 1 1 1 1 1 1
0 0 0 0 0 0 0 0 0 0 0 0 0 0 0 0 0 0 0 0 0 0 0 0 0 0 0 1 1 0 0 0 1 1 1 1 1 1 1 1 1 1 1
0 0 0 0 0 0 0 0 0 0 0 0 0 0 0 0 0 0 0 0 0 0 0 0 0 0 0 0 0 0 0 0 0 1 1 1 0 0 0 1 1 1 1
0 0 0 0 0 0 0 0 0 0 0 0 0 0 0 0 0 0 0 0 0 0 0 0 0 0 0 0 0 0 0 0 0 0 0 0 0 0 0 0 0 0 1
0 0 0 0 0 0 0 0 0 0 0 0 0 0 0 0 0 0 0 0 0 0 0 0 0 0 0 0 0 0 0 0 0 0 0 0 0 0 0 0 0 0 0
0 0 0 0 0 0 0 0 0 0 0 0 0 0 0 0 0 0 0 0 0 0 0 0 0 0 0 0 0 0 0 0 0 0 0 0 0 0 0 0 0 0 0
0 0 0 0 0 0 0 0 0 0 0 0 0 0 0 0 0 0 0 0 0 0 0 0 0 0 0 0 0 0 0 0 0 0 0 0 0 0 0 0 0 0 0
0 0 0 0 0 0 0 0 0 0 0 0 0 0 0 0 0 0 0 0 0 0 0 0 0 0 0 0 0 0 0 0 0 0 0 0 0 0 0 0 0 0 0
0 0 0 0 0 0 0 0 0 0 0 0 0 0 0 0 0 0 0 0 0 0 0 0 0 0 0 0 0 0 0 0 0 0 0 0 0 0 0 0 0 0 0
0 0 0 0 0 0 0 0 0 0 0 0 0 0 0 0 0 0 0 0 0 0 0 0 0 0 0 0 0 0 0 0 0 0 0 0 0 0 0 0 0 0 0
0 0 0 0 0 0 0 0 0 0 0 0 0 0 0 0 0 0 0 0 0 0 0 0 0 0 0 0 0 0 0 0 0 0 0 0 0 0 0 0 0 0 0
0 0 0 0 0 0 0 0 0 0 0 0 0 0 0 0 0 0 0 0 0 0 0 0 0 0 0 0 0 0 0 0 0 0 0 0 0 0 0 0 0 0 0
0 0 0 0 0 0 0 0 0 0 0 0 0 0 0 0 0 0 0 0 0 0 0 0 0 0 0 0 0 0 0 0 0 0 0 0 0 0 0 0 0 0 0
0 0 0 0 0 0 0 0 0 0 0 0 0 0 0 0 0 0 0 0 0 0 0 0 0 0 0 0 0 0 0 0 0 0 0 0 0 0 0 0 0 0 0
0 0 0 0 0 0 0 0 0 0 0 0 0 0 0 0 0 0 0 0 0 0 0 0 0 0 0 0 0 0 0 0 0 0 0 0 0 0 0 0 0 0 0
0 0 0 0 0 0 0 0 0 0 0 0 0 0 0 0 0 0 0 0 0 0 0 0 0 0 0 0 0 0 0 0 0 0 0 0 0 0 0 0 0 0 0
Wind_Speed
2 2 2 2 3 2 3 3 3 4 4 4 4 5 4 4 3 3 3 9 10 9 10 10 10 10 10 9 9 9 8 8 8 8 8 8 8 8 8 8 7 6 6
2 2 3 3 3 2 3 3 3 3 3 3 4 4 3 3 3 4 3 5 9 9 9 9 9 9 9 8 8 8 8 8 8 7 7 7 7 7 7 7 7 6 6
3 2 2 3 2 2 3 3 3 3 3 3 4 4 3 3 3 3 3 3 4 7 9 9 9 8 8 8 7 7 7 7 7 7 7 6 6 6 6 6 6 6 5
3 3 2 2 2 2 2 2 2 3 3 3 3 3 3 2 3 3 3 3 3 4 6 9 8 8 7 7 7 7 7 6 7 7 7 6 6 6 6 6 6 6 5
3 3 2 2 2 2 2 2 3 3 3 3 3 2 2 2 2 3 3 4 3 3 3 6 9 8 7 7 6 6 6 6 5 5 6 6 6 6 6 6 6 6 6
3 3 2 2 2 2 2 2 3 3 2 2 3 3 2 1 2 2 3 3 3 4 4 4 4 5 7 7 7 6 5 6 5 5 5 6 6 6 6 6 6 7 6
2 2 2 2 2 2 2 3 2 2 2 2 2 2 2 1 2 2 2 2 3 3 3 3 3 3 3 6 7 7 6 5 6 6 5 5 6 6 7 7 7 7 7
2 2 2 2 2 2 2 3 2 2 1 2 1 1 2 2 3 2 1 2 2 2 3 3 3 3 2 2 5 7 7 6 6 6 6 6 6 7 7 8 8 8 8
2 2 2 2 2 2 2 1 1 2 0 1 1 1 1 1 2 2 1 2 2 2 2 2 2 2 3 2 2 5 7 7 7 7 7 7 7 7 8 9 9 9 9
3 2 2 2 2 2 1 1 1 1 1 0 1 1 0 1 0 2 2 1 2 2 2 2 2 2 2 1 3 6 6 7 7 8 8 7 8 8 9 9 10 10 10
3 3 2 2 2 2 2 1 1 1 0 1 0 1 1 1 1 1 2 2 2 2 2 2 2 1 1 1 1 4 6 7 8 8 8 8 9 9 9 10 10 11 11
2 3 2 2 2 2 2 1 1 0 0 0 0 0 1 1 1 1 2 3 3 3 3 2 2 1 1 1 2 6 7 7 8 9 9 8 9 10 10 11 11 12 12
2 3 2 2 2 1 1 1 1 1 1 1 1 1 1 1 1 1 2 3 3 3 2 2 2 2 2 1 2 6 7 7 8 9 9 9 9 10 10 11 12 13 13
3 3 3 2 2 2 1 1 1 2 1 2 2 2 1 2 1 2 2 2 3 3 2 3 2 2 1 2 4 7 4 8 9 9 9 9 9 10 10 11 12 12 13
2 3 3 3 2 2 2 2 2 2 2 2 2 2 2 2 2 2 2 2 2 4 4 3 2 2 2 2 5 3 3 7 10 10 10 9 9 10 11 11 12 12 12
3 3 3 3 2 2 2 2 2 2 2 2 2 2 2 2 2 2 2 2 2 3 5 3 2 3 3 5 7 4 3 9 10 10 10 10 10 10 11 12 12 12 12
3 3 3 3 3 3 3 3 3 3 3 3 3 3 3 3 2 2 2 2 2 3 5 5 3 3 3 4 5 4 4 4 4 9 10 11 11 11 11 12 12 12 11
3 3 3 3 3 3 3 3 3 3 3 4 3 3 4 3 3 2 2 3 3 3 4 6 4 3 4 3 4 4 5 4 3 8 10 11 11 11 11 12 12 11 11
2 2 3 3 3 3 3 4 4 4 4 4 4 4 4 4 4 3 3 3 3 4 3 4 5 3 3 3 3 4 5 4 5 6 9 9 10 11 12 12 12 11 11
2 2 3 3 3 3 4 4 4 4 4 4 4 4 4 5 5 5 5 4 3 3 3 4 4 4 3 3 2 3 4 3 4 5 6 7 9 11 12 13 12 12 12
2 2 2 3 3 3 4 5 5 5 5 4 4 5 5 6 8 6 5 4 3 3 3 4 4 4 3 3 3 3 4 3 4 3 3 4 5 4 5 9 11 12 13
2 2 2 3 3 4 6 8 6 4 4 5 5 4 5 6 7 9 10 9 8 6 5 5 4 5 5 3 2 3 4 4 4 2 3 5 4 4 4 4 9 13 13
2 2 2 3 3 5 8 8 8 4 4 4 4 4 4 5 6 4 7 9 9 11 10 6 6 6 5 4 4 4 5 5 6 4 4 6 4 5 4 6 12 13 13
2 2 3 3 3 5 8 8 7 3 3 4 4 4 5 5 5 5 5 5 5 6 7 6 5 5 5 5 5 5 6 5 5 4 4 6 5 5 5 4 10 12 12
2 2 3 3 3 5 8 7 6 2 3 4 4 4 5 5 8 9 5 4 5 5 8 9 10 9 10 10 8 4 4 4 6 5 3 4 4 5 5 5 6 10 11
2 2 3 2 3 4 7 7 6 2 3 3 3 4 7 7 9 9 5 4 5 5 4 5 6 6 6 6 9 5 4 4 4 4 3 3 4 4 5 4 3 4 6
Wind_Direction
73 74 69 54 41 38 34 23 28 27 26 23 29 34 35 38 44 48 51 49 44 43 43 43 47 50 51 53 52 49 49 48 47 44 41 39 39 38 34 31 31 30 27
66 69 69 56 40 32 32 32 31 29 25 23 23 24 29 33 47 53 54 45 42 40 39 37 37 43 47 49 51 47 44 44 41 39 34 32 29 27 26 21 19 20 18
68 73 73 63 40 33 39 37 34 36 34 26 18 11 22 37 45 49 51 48 39 36 35 33 30 33 39 40 43 45 41 41 36 33 30 27 22 15 10 5 3 4 5
75 79 79 68 48 46 45 42 43 36 33 25 13 4 12 31 50 53 54 49 45 38 33 32 27 27 30 29 31 33 32 33 29 24 22 21 17 7 1 356 351 349 348
74 80 81 75 61 61 55 44 44 44 41 26 8 1 11 26 40 54 55 54 47 43 37 28 26 26 27 22 21 21 21 18 17 14 12 9 6 0 354 349 342 338 337
74 84 87 77 73 73 61 55 54 42 54 32 13 7 1 24 45 60 56 49 43 43 36 24 17 13 19 18 19 11 7 6 1 354 354 352 352 346 340 340 337 330 323
79 84 85 85 79 79 76 77 75 63 45 29 28 2 351 34 71 65 65 63 45 39 32 24 25 13 4 11 11 6 1 353 351 344 337 334 335 332 329 326 325 325 323
100 104 101 104 90 88 77 79 78 57 34 30 40 15 357 353 28 28 29 55 44 28 21 18 22 16 8 8 1 359 352 345 337 333 328 326 322 320 320 318 314 312 313
114 110 118 121 105 97 103 93 101 78 60 350 34 86 92 291 332 323 349 29 33 17 357 3 14 11 11 9 349 348 345 339 329 324 320 318 317 315 310 307 307 306 304
129 122 126 126 118 106 105 106 77 71 115 29 353 12 129 168 202 313 313 337 351 347 336 337 345 352 0 344 343 341 337 336 326 319 318 313 308 306 307 306 302 301 301
151 146 142 145 145 134 128 103 55 40 113 187 225 320 344 342 241 224 279 308 322 313 320 310 307 319 322 308 302 322 327 326 321 319 318 317 312 305 305 305 305 301 298
165 157 149 150 156 152 155 160 169 184 228 253 264 246 225 219 260 253 265 292 295 293 300 291 288 284 284 281 306 327 323 323 320 318 316 315 314 313 309 306 304 302 299
173 171 161 163 167 167 169 168 182 203 209 225 236 246 249 243 241 247 256 276 284 287 273 267 264 277 292 296 302 316 311 315 313 311 309 311 311 313 314 312 307 302 297
176 169 168 174 179 176 180 182 193 215 214 224 244 247 251 260 251 241 238 259 290 284 265 263 282 276 306 301 302 313 305 308 306 304 306 310 312 312 311 310 308 305 299
169 166 172 174 177 182 189 197 203 213 218 228 236 246 253 259 258 255 241 218 235 275 281 271 281 301 316 306 301 292 281 295 302 303 304 305 306 309 307 305 303 302 301
163 166 176 178 185 194 197 204 216 219 220 236 238 238 249 258 261 257 245 244 236 249 271 269 274 289 300 299 297 296 285 300 301 302 303 303 303 304 304 302 298 295 294
169 176 183 187 194 202 202 207 218 217 223 237 239 238 245 248 252 255 253 247 250 247 265 279 276 276 276 287 296 294 285 278 283 296 299 301 301 302 303 304 299 295 292
180 184 187 197 207 211 207 210 223 229 226 230 231 235 246 248 246 249 248 247 249 247 257 275 283 280 275 276 284 285 293 295 287 296 299 300 300 301 302 302 302 298 294
184 195 198 205 212 213 216 220 220 225 230 232 230 230 238 239 246 245 248 251 252 263 262 266 277 276 277 280 287 293 292 289 291 296 301 299 301 304 305 305 305 300 295
194 201 209 217 218 223 231 229 228 229 228 235 237 237 237 239 243 242 246 243 247 257 260 262 269 274 276 277 274 286 294 290 290 297 298 301 303 306 306 305 305 304 296
214 208 211 229 233 230 228 224 224 228 227 233 241 245 245 251 254 253 251 237 233 243 249 259 267 274 272 276 271 277 289 297 288 285 295 293 295 292 295 296 300 301 296
209 217 226 231 237 245 245 247 245 227 228 233 242 246 249 257 263 266 270 266 255 245 241 247 258 260 266 266 269 277 284 293 289 284 290 290 287 284 283 275 296 298 298
209 222 231 236 244 246 252 254 256 247 230 236 242 246 257 256 266 257 266 270 271 269 265 256 250 255 260 259 263 272 273 277 275 281 293 287 279 278 282 294 298 299 300
215 225 233 234 247 256 261 259 262 257 242 247 247 243 246 249 252 254 250 255 255 261 265 263 252 255 260 257 249 260 266 275 278 278 275 277 279 277 289 289 296 296 300
237 238 237 235 242 257 264 261 265 236 241 247 250 251 251 241 252 260 258 259 266 266 271 270 268 268 272 276 275 267 264 271 278 280 271 267 280 289 286 281 286 297 304
246 255 262 252 242 249 261 264 266 232 237 245 250 252 260 261 260 263 251 242 257 265 269 276 278 282 282 281 283 269 258 263 276 279 268 275 286 299 293 278 284 302 300